Pagina principale
METAR-TAF:

METAR-TAF

Aeroporti :

Whiting_Field_Naval_Air_Station_South_Airport

Milton, Florida, Stati Uniti

latitudine: 30-41-50N, longitudine: 087-01-12W, altezza: 54 m

Osservazione

Il bollettino è stato emesso 45 minuti fa, alle 22:56 UTC
Vento 8 kt da sud
Temperature 19°C
Umidità 64%
Pressione 1021 hPa
Visibilità: 16.1 km
Poco nuvoloso ad un'altezza di 6500 ft

METAR: KNDZ 242256Z 18008KT 10SM FEW065 19/12 A3015 RMK AO2 SLP198 FU DSNT NE-E T01940117 $

Ora: 18:41 (23:41 UTC)


TAF: mancante

Osservazioni e previsioni meteorologiche di più di 4000 aeroporti (messaggi METAR e TAF).

Le stazioni disponibili sono rappresentate dai dischi gialli e rossi sulla carta.

Puntare il mouse per vedere il nome della stazione.

Clicca sopra per visualizzare le osservazioni e previsioni meteorologiche.

Per cambiare la mappa : fare clic sui pulsanti verdi con una croce nera per ingrandire, il pulsante verde con un trattino per diminuire, o sulla freccia verde per le mappe adiacenti.


METAR-TAF: